Location: New Town
(33.2710°N, 90.7534°W)
Time: 13:32:33
(UTC+00:00)

Explorer 11/Cluster Stage 4 - Pass Details

Date: 21 May 2021
Orbit: 467 x 1257 km, 28.8° (Epoch: 14 June)

Event Time Altitude Azimuth Distance (km) Brightness Sun altitude
Rises 00:26:06 0° 257° (WSW) 3,598 11.0 5.7°
Reaches altitude 10° 00:28:35 10° 254° (WSW) 2,762 10.4 5.2°
Maximum altitude 00:35:24 62° 175° (S) 1,263 7.6 3.9°
Drops below altitude 10° 00:43:20 10° 97° (E) 3,190 9.1 2.3°
Sets 00:46:23 0° 94° (E) 4,188 9.7 1.7°
